Weather in Guaruja

Brazil     23°59′23″S   46°15′38″W
В апреле 2022 года жителям России запретили посещать сайт meteo.paraplan.net по решению Генеральной прокуратуры. Аудитория сайта уменьшилась в 10 раз. Владельцы сайта не видят смысла в поддержке погодного сервера в таких условиях. Сайт будет закрыт в октябре.
temp.,
°C
wind,
m/s
gust,
m/s
humid.,
%
clouds,
%
prec.,
mm/h
press.,
hPa
HPBL,
m
29 september, thu
thu2900:00+18ese4585100 1.6 1021480
03:00+18sse4688100 4.3 1021494
06:00+18se6886100 3.3 1021770
09:00+18ese5683100 5.3 1023626
12:00+18ese4581100 0.6 1022674
15:00+18ese4585100 1.3 1021591
18:00+18ese6785100 1.4 1021663
21:00+18ese6783100 2.6 1023699
30 september, fri
fri3000:00+18e6884100 0.8 1022668
03:00+18e7886100 1.3 1019689
06:00+19e6787100 0.6 1020545
09:00+20ene568279 1.1 1022648
12:00+20e5580100 0.1 1020616
15:00+20e5582100 0.1 1019512
18:00+19e4586100 0.4 1019406
21:00+19ene3388100 0.6 1020308
1 october, sat
sat100:00+19ene3492100 0.9 1018282
03:00+19sw1193100 2.2 1017159
06:00+19wsw1192100 0.9 1017133
09:00+20sw118761 1.8 1018256
12:00+20sw4393100 1.6 1017280
15:00+20sw229140 2.3 1015261
18:00+20ene118910 0.1 1016108
21:00+20n11916 0.1 101875
2 october, sun
sun200:00+19n11915 0.0 101774
03:00+19wsw22900 0.0 1016146
06:00+19wsw349115 0.0 1017213
09:00+20sw448734 0.0 1019447
12:00+21ssw448427 0.1 1018589
15:00+21ssw448113 0.1 1016538
18:00+20s228528 0.1 1017212
21:00+20e11870 0.3 101868
3 october, mon
mon300:00+18nnw11885 0.1 1018107
03:00+18nnw21865 0.1 1016109
06:00+18w1186100 0.1 1017136
09:00+19sw2183100 0.1 1018362
12:00+20s2285100 0.3 1016452
15:00+19ese3390100 3.2 1014460
18:00+19e6787100 2.1 1015480
21:00+19e4585100 2.1 1016475